Weather Service Report


402 
ASUS45 KREV 250710
RWRNV 
NEVADA REGIONAL WEATHER ROUNDUP
NATIONAL WEATHER SERVICE RENO NV
1200 AM PDT SUN SEP 25 2016

NOTE: "FAIR" INDICATES FEW OR NO CLOUDS BELOW 12,000 FEET WITH NO
SIGNIFICANT WEATHER AND/OR OBSTRUCTIONS TO VISIBILITY.

NVZ001-003-004-250800-
WESTERN NEVADA
  
CITY           SKY/WX    TMP DP  RH WIND       PRES   REMARKS
RENO           CLEAR     58  29  33 CALM      30.39S                  
CARSON CITY    FAIR      52  28  40 CALM      30.42S                  
MINDEN         FAIR      45  27  49 CALM      30.42S                  
PYRAMID LAKE     N/A     64 N/A N/A SW5         N/A                   
FALLON         CLEAR     50  30  46 CALM      30.37R                  
LOVELOCK       CLEAR     45  21  38 N3        30.38R                  
$$

NVZ002-CAZ072-073-250800-
NORTHERN AND CENTRAL SIERRA
  
CITY           SKY/WX    TMP DP  RH WIND       PRES   REMARKS
S. LAKE TAHOE  CLEAR     46  26  45 VRB3      30.43S                  
TRUCKEE        CLEAR     37  21  52 CALM      30.45R                  
SQUAW VLY 8000 NOT AVBL                                               
MAMMOTH LAKES  FAIR      49  19  30 W10       30.50S                  
BRIDGEPORT       N/A     40  15  36 CALM      30.49R                  
$$

NVZ030-031-036-250800-
NORTHERN NEVADA
  
CITY           SKY/WX    TMP DP  RH WIND       PRES   REMARKS
ELKO           CLEAR     43  34  70 CALM      30.44R                  
WINNEMUCCA     CLEAR     44  22  41 S6        30.41R                  
WENDOVER       CLEAR     52  37  58 CALM      30.41R                  
$$

NVZ035-037-250800-
CENTRAL NEVADA
  
CITY           SKY/WX    TMP DP  RH WIND       PRES   REMARKS
ELY            CLEAR     34  30  85 SW3       30.45R                  
EUREKA           N/A     38  32  79 E5        30.45S                  
$$

NVZ013-014-250800-
SOUTH CENTRAL NEVADA
  
CITY           SKY/WX    TMP DP  RH WIND       PRES   REMARKS
TONOPAH        CLEAR     57  27  31 N12       30.38F                  
$$

NVZ017-020-022-250800-
SOUTHERN NEVADA
  
CITY           SKY/WX    TMP DP  RH WIND       PRES   REMARKS
LAS VEGAS      CLEAR     74  28  18 N9        30.13R                  
N. LAS VEGAS   CLEAR     72  27  18 CALM      30.14R                  
NELLIS AFB     CLEAR     69  32  24 E6        30.12R                  
HENDERSON      CLEAR     64  33  31 S3        30.16S                  
MERCURY        CLEAR     68  22  17 N12       30.20S                  
$$
  

Return to Home page


Western Regional Climate Center, wrcc@dri.edu